Wind_Speed
19 18 16 15 14 15 17 17 16 16 14 13 13 13 13 13 13 11 10 9 9 10 12 13 14 15 16 16 16 16 16 17 18 18 18 17 16 16 15 15 15 14 13 11 10 9 9 9 8 8 8 8 8 7 6 7 7 8 9 11 13 14 14 14 14 15 16 16 16 16 16 16 15 15 16 16 17 17 18 18 18 18 19 19 18
20 19 17 16 15 15 17 16 16 16 15 13 13 14 14 14 13 12 11 10 9 10 11 12 13 15 16 15 15 16 16 17 17 18 17 16 15 14 14 13 13 12 11 11 10 9 9 8 7 7 7 7 8 7 6 6 7 8 9 11 13 14 14 14 14 14 15 15 15 15 15 15 15 14 14 15 16 16 16 16 16 16 17 17 16
20 19 17 17 16 15 17 17 17 16 15 14 14 14 14 14 14 12 11 10 10 11 11 12 13 15 16 16 16 16 16 17 17 16 15 15 14 14 13 12 11 10 9 8 9 9 9 8 8 7 7 7 8 8 7 6 7 8 9 11 14 15 14 13 13 13 14 15 14 15 15 14 14 13 13 14 15 15 14 14 15 15 15 15 15
20 19 17 17 16 15 16 17 17 17 16 15 15 14 15 15 14 13 12 11 11 12 12 12 13 15 15 15 15 15 16 16 16 15 15 15 15 14 13 12 11 10 8 7 7 7 8 8 8 8 8 8 9 9 8 8 8 9 9 12 15 15 14 13 12 11 13 14 13 14 14 14 13 13 12 13 14 14 13 12 13 13 13 13 13
20 19 17 16 16 15 16 16 17 17 17 15 15 14 15 15 14 14 13 12 11 12 12 13 13 14 15 15 14 14 14 14 14 14 15 15 14 13 12 11 10 9 9 7 6 6 6 7 9 10 9 9 10 11 10 9 10 10 10 13 15 16 14 13 11 11 13 14 14 13 13 13 12 12 11 12 12 12 11 11 11 11 11 11 12
20 19 17 17 15 15 16 16 17 17 18 17 15 14 15 16 15 14 14 12 12 12 12 12 13 13 14 14 14 13 13 13 13 14 14 13 12 12 11 10 10 9 8 8 6 5 6 7 9 11 11 11 12 12 12 11 11 11 11 13 16 17 15 13 11 11 13 13 14 13 12 12 11 11 11 10 11 11 10 9 9 9 9 10 10
20 19 17 16 15 15 14 16 17 17 18 18 16 15 15 16 16 15 14 13 12 12 12 12 12 12 12 12 13 12 12 12 13 13 12 12 11 10 10 9 9 8 8 8 7 6 6 7 9 12 13 14 14 14 14 13 13 13 12 14 16 17 15 13 12 13 14 12 13 13 12 11 10 10 10 9 9 9 9 8 8 8 8 8 8
20 19 17 15 15 15 14 16 17 17 18 18 17 16 15 16 17 16 15 14 12 12 12 12 12 11 11 11 11 11 12 12 12 11 10 9 10 10 10 9 9 8 9 8 7 7 8 8 9 11 14 15 16 16 16 15 15 15 14 14 17 18 16 15 15 15 14 11 11 12 12 11 10 10 9 9 8 8 8 8 7 7 7 7 7
20 19 17 15 14 14 14 15 17 17 17 18 18 17 16 17 17 16 15 14 13 12 12 12 11 11 10 9 9 10 10 11 11 10 9 8 8 9 9 9 9 9 9 9 8 8 9 9 9 12 14 16 17 17 17 17 16 16 15 14 17 19 19 18 17 16 14 12 11 11 12 12 11 10 9 9 7 7 7 7 7 6 6 6 6
20 18 17 15 14 14 15 14 16 18 17 17 18 18 18 17 18 17 16 15 14 13 12 12 11 10 10 9 8 8 8 8 9 8 8 8 8 8 8 7 8 9 9 9 10 9 9 10 10 12 13 15 16 16 18 18 18 18 17 15 16 19 20 19 18 16 15 13 11 11 12 12 12 11 10 9 8 7 6 6 6 6 5 5 4
20 19 17 15 14 14 14 14 16 17 17 16 17 18 19 19 18 19 18 16 15 13 13 12 11 10 9 9 8 7 7 7 7 7 7 8 8 7 8 7 7 8 9 10 10 9 10 10 11 12 12 14 16 16 18 19 19 19 19 17 15 17 19 19 18 16 15 14 13 11 11 12 12 11 11 10 9 8 6 6 6 6 5 4 3
21 19 17 15 14 13 14 14 14 15 16 16 16 18 19 20 20 20 20 18 16 14 13 12 11 9 8 8 7 7 7 7 7 7 7 7 7 8 8 8 8 8 10 11 11 10 11 11 11 12 11 14 16 17 18 19 20 20 19 19 17 16 17 19 18 17 16 15 14 12 12 12 12 11 11 11 10 9 7 7 6 5 4 3 3
21 20 18 15 14 13 14 13 13 14 15 14 14 15 16 18 20 20 20 19 18 15 14 13 11 10 8 7 6 5 5 6 7 8 8 8 8 9 10 9 9 9 11 12 11 12 12 11 11 11 10 13 16 17 18 19 20 20 19 19 18 16 15 17 17 17 16 16 15 14 13 13 12 11 10 10 10 9 8 7 6 4 3 3 2
20 20 18 15 15 14 13 12 13 13 14 15 14 13 13 14 17 18 18 18 18 17 15 13 12 10 9 7 6 5 5 6 7 8 8 8 8 9 10 9 9 9 11 12 12 12 12 12 11 11 10 11 13 15 16 18 20 21 19 18 18 16 15 15 15 15 15 15 15 15 14 13 12 12 11 10 10 9 9 8 6 5 3 2 2
20 20 18 16 16 14 13 12 13 13 14 14 14 13 12 13 14 15 15 16 16 17 16 14 13 11 9 7 7 5 5 6 7 8 8 8 8 8 9 9 9 9 10 12 13 12 12 13 12 11 10 10 10 12 13 14 18 20 19 17 17 16 15 14 14 13 13 13 14 14 14 13 12 12 13 12 11 10 9 8 6 5 4 2 1
20 20 19 17 16 14 13 12 13 13 13 13 13 12 12 12 13 14 14 14 14 15 16 14 12 11 9 8 8 7 5 6 7 8 8 8 7 7 7 8 8 8 10 11 12 12 11 13 14 13 11 11 10 10 11 11 14 17 17 17 16 16 15 14 13 12 12 12 12 12 12 12 12 13 14 13 12 11 11 9 7 6 5 3 2
19 19 18 16 15 13 12 12 12 12 12 12 12 11 11 12 13 14 14 13 13 14 15 14 13 11 9 8 8 7 6 7 7 8 8 7 6 6 7 8 8 8 10 10 11 12 11 12 14 15 14 13 11 10 10 10 11 14 15 15 15 15 15 14 12 11 11 10 10 10 10 10 11 11 13 14 13 13 12 11 9 7 5 4 3
19 18 15 14 14 12 11 11 10 10 10 10 10 10 9 11 13 13 13 12 13 14 16 15 13 11 9 8 8 7 6 7 8 8 8 6 6 6 7 8 8 8 9 9 10 11 12 12 14 16 16 15 14 12 11 10 10 11 12 13 13 13 14 14 12 11 10 9 8 7 7 7 7 8 9 10 11 12 12 11 9 7 6 4 3
19 17 15 14 14 12 12 11 10 10 9 9 8 8 8 10 12 12 12 11 13 14 15 15 13 11 9 8 7 6 6 8 8 8 8 6 5 6 8 8 8 8 8 8 9 11 12 13 14 16 16 16 16 15 13 11 10 10 11 11 11 11 12 13 12 10 10 8 7 6 5 4 4 4 5 6 7 8 8 8 7 6 5 5 3
18 17 15 14 13 13 12 10 10 9 9 9 8 9 8 9 10 11 10 10 12 13 14 14 12 11 9 7 6 6 7 8 8 8 8 6 5 6 8 8 8 8 8 7 8 11 13 14 14 15 16 15 16 17 15 13 11 10 10 10 10 9 10 11 12 11 10 8 7 6 5 4 3 2 2 3 5 5 5 5 5 4 4 4 3
19 17 15 13 12 12 11 9 8 8 8 9 9 9 9 9 10 10 10 10 11 13 14 13 11 10 8 7 6 6 7 8 8 9 8 6 5 6 8 8 8 8 6 5 6 9 13 14 15 15 17 16 16 18 17 14 13 12 10 9 9 9 8 9 11 11 10 9 7 6 5 4 4 3 2 3 4 5 5 4 4 3 4 3 3
19 18 15 12 11 11 11 9 8 7 8 8 9 9 9 9 9 10 10 10 11 13 14 13 12 11 9 8 8 7 7 8 9 10 8 6 6 7 8 8 9 8 4 3 4 7 11 14 15 16 17 17 16 18 19 17 14 14 12 10 8 8 7 7 9 10 10 9 8 7 6 5 4 3 3 3 5 6 6 5 4 4 4 3 2
19 18 15 14 12 11 11 9 8 8 8 8 8 9 9 9 9 10 10 10 12 12 13 13 14 12 11 9 9 8 7 9 9 9 7 6 7 8 8 7 9 8 5 3 3 5 10 13 15 16 18 18 17 17 19 19 17 15 14 12 9 8 8 7 7 8 9 8 8 7 6 6 5 4 4 4 5 6 7 6 5 5 5 4 3
19 18 16 15 13 12 11 10 9 9 8 8 8 9 9 10 10 11 11 11 11 12 13 14 13 12 12 9 9 9 8 8 8 8 8 8 9 9 8 8 9 9 6 4 3 4 8 13 15 16 18 19 18 17 18 20 19 17 16 13 11 9 9 8 7 6 7 7 7 6 5 5 5 4 4 4 4 6 7 7 6 6 6 5 4
18 18 17 16 14 13 11 10 9 9 8 7 8 9 10 10 10 11 12 12 12 12 13 12 12 13 12 10 10 10 8 8 7 8 8 10 11 10 9 9 8 8 6 4 3 3 5 10 15 17 17 19 20 18 17 19 21 19 17 14 11 10 10 9 7 6 5 5 5 5 4 4 4 3 3 3 4 5 7 8 7 7 7 6 6
18 17 16 14 13 12 11 10 9 8 8 7 8 8 9 10 11 12 13 14 13 13 12 11 12 13 14 13 11 10 9 8 7 7 8 11 12 10 9 9 9 8 6 4 3 4 3 7 14 17 17 19 21 19 18 18 21 21 18 15 13 11 11 9 8 7 6 5 4 3 3 2 2 2 2 2 3 3 5 7 8 7 7 7 7
17 15 14 12 10 10 9 9 8 7 7 7 7 7 8 9 11 12 13 15 14 13 12 11 12 13 14 13 10 10 10 9 7 7 8 11 12 12 10 10 9 8 6 5 3 4 4 6 12 17 18 19 21 19 17 17 19 21 19 17 14 12 11 9 8 7 6 5 3 3 2 2 2 1 1 1 2 2 3 5 7 7 8 8 8
16 13 11 8 6 5 5 7 7 7 6 6 6 6 8 9 11 12 13 15 14 13 13 12 12 12 13 12 10 11 11 9 8 7 8 11 13 14 13 12 10 9 7 5 3 3 4 7 12 17 19 19 21 19 16 16 18 20 20 18 16 14 12 10 9 8 7 5 4 3 4 3 3 2 2 1 1 1 1 2 4 6 7 8 8
13 11 8 6 4 2 3 4 5 6 5 5 5 6 7 8 10 11 13 13 13 13 12 13 13 12 12 11 10 11 11 10 9 8 9 11 13 14 14 12 10 9 9 6 3 2 3 7 12 16 19 19 20 19 16 15 16 19 20 19 18 15 13 12 10 9 8 7 6 5 5 5 4 3 3 3 2 2 2 2 2 3 5 6 7
12 9 7 5 4 2 2 3 4 4 4 4 4 5 7 8 9 11 11 12 12 12 11 12 13 13 12 11 11 11 12 11 10 9 10 11 12 14 14 13 12 10 9 7 4 4 3 6 13 16 17 18 18 18 16 14 14 17 20 20 19 18 15 14 12 10 9 9 8 8 7 6 6 5 4 4 5 5 4 4 4 4 4 5 6
13 9 6 4 2 1 3 4 4 4 4 4 4 4 6 8 9 10 11 11 12 12 11 11 11 13 13 13 13 12 12 11 10 10 10 10 12 14 15 16 14 11 10 8 7 6 5 7 13 15 15 17 17 17 16 15 13 14 18 21 21 20 18 17 14 12 11 11 10 10 10 8 7 6 5 5 6 6 6 6 6 5 5 6 7
12 8 5 4 2 2 3 4 5 5 5 5 4 4 5 6 7 8 9 11 12 11 11 10 10 12 13 14 13 13 12 11 11 11 11 10 11 13 14 16 15 12 11 9 9 9 7 8 11 14 15 16 16 15 15 15 14 13 16 20 22 22 20 19 17 15 13 12 11 11 11 10 8 7 6 6 6 6 7 7 7 7 7 7 8
10 7 5 4 3 3 4 5 5 6 5 5 4 4 4 5 5 6 7 8 10 10 10 10 10 12 13 14 14 14 13 12 12 12 12 12 11 13 13 13 14 14 12 10 10 10 10 9 11 13 15 15 15 14 14 14 14 13 14 18 21 22 21 20 18 16 14 12 12 12 12 10 9 8 7 6 6 7 7 7 7 8 8 8 8
9 8 6 4 4 3 4 5 6 6 6 5 5 5 5 5 5 5 6 7 8 8 9 10 11 12 13 14 14 15 13 12 14 13 12 12 11 12 13 13 14 13 12 11 11 12 12 11 11 12 13 14 13 12 12 12 12 12 13 15 18 19 20 18 16 14 13 12 12 12 12 11 10 9 8 7 7 7 7 7 7 7 8 8 8
12 9 7 5 4 3 4 5 6 6 6 5 6 6 5 5 6 7 8 9 9 8 8 8 11 12 13 13 14 14 12 12 15 14 13 12 12 11 12 14 14 12 13 13 13 14 14 15 13 13 13 13 12 12 11 11 11 12 12 13 15 16 16 14 13 12 12 11 11 12 12 12 12 11 10 9 9 8 8 7 7 7 7 7 7
14 11 8 7 4 3 4 5 5 5 6 7 7 7 6 6 7 7 8 9 9 8 7 7 8 10 11 12 13 14 12 12 13 13 13 12 11 10 11 13 14 14 14 14 15 16 17 17 17 16 15 14 13 13 13 12 12 12 13 14 15 15 14 12 11 9 9 9 10 11 12 12 12 12 12 12 11 10 9 8 8 7 6 5 6
14 13 10 8 5 3 3 3 4 5 7 7 7 7 6 6 6 6 7 8 8 8 7 5 4 6 7 8 10 12 13 13 12 12 12 11 10 10 12 13 13 14 14 14 15 17 18 18 18 18 17 15 16 16 15 14 14 13 14 15 16 16 15 13 11 9 8 9 9 9 10 11 11 11 12 12 12 12 10 9 8 8 7 6 5
16 15 11 8 6 4 3 3 4 6 7 7 7 7 6 5 4 4 5 6 7 7 7 6 5 5 5 5 7 8 10 12 12 13 11 10 10 10 12 13 12 13 14 15 15 16 18 17 18 19 18 17 17 18 17 16 15 16 16 17 18 18 17 15 13 12 11 10 9 8 8 9 10 11 12 13 13 13 12 10 10 9 9 7 5
18 17 14 10 8 6 5 4 5 7 8 8 7 7 5 4 2 2 2 3 5 5 6 6 5 6 6 7 7 7 7 8 9 11 10 9 9 8 10 12 13 14 15 16 15 15 16 15 17 19 18 16 15 14 14 15 15 16 18 18 18 19 18 17 16 15 13 12 10 9 8 8 9 10 12 13 13 13 13 12 11 11 10 9 8
21 19 16 13 11 9 7 6 6 7 8 8 7 6 5 4 3 4 3 3 3 2 1 1 2 4 5 6 8 8 8 8 7 8 8 9 9 9 9 11 13 15 15 14 14 14 14 14 16 17 17 15 12 10 11 12 14 15 16 18 19 19 18 18 17 16 14 12 11 10 10 9 9 10 10 11 13 13 13 13 13 12 12 11 10
24 21 18 16 13 10 8 6 6 7 7 7 7 6 5 5 6 7 6 5 5 4 3 2 1 2 4 5 6 8 9 9 9 8 8 9 10 10 10 11 12 13 13 13 13 13 12 13 14 15 15 14 12 10 9 11 13 14 14 16 18 18 18 18 18 17 15 14 13 13 12 11 12 11 11 11 12 12 13 14 14 13 13 12 11
27 24 20 18 15 12 9 7 6 7 7 7 6 7 6 6 8 9 8 8 7 5 4 3 1 2 2 4 5 7 8 9 9 9 9 8 8 9 10 11 11 12 12 11 12 13 12 11 12 14 15 14 13 12 11 11 13 14 14 15 17 18 18 19 19 18 17 16 16 16 16 15 14 12 12 14 13 13 13 13 14 14 14 13 12
29 25 22 20 18 15 12 9 7 7 8 9 8 9 10 10 9 9 9 8 7 6 5 5 4 4 3 3 3 4 5 7 8 8 8 7 7 7 8 9 10 11 10 8 10 11 9 9 9 11 14 15 14 14 13 13 13 14 14 15 15 16 18 19 19 20 19 19 18 18 18 17 15 14 14 15 15 14 13 13 13 14 14 14 13
31 28 25 23 21 18 14 11 9 8 9 11 11 12 12 12 10 9 8 7 6 6 6 6 6 6 6 7 6 5 4 3 4 5 6 5 6 6 6 6 7 8 7 7 7 7 6 7 8 10 13 14 13 11 11 12 13 12 12 12 12 13 14 14 16 18 18 19 19 19 19 19 17 16 16 16 15 15 14 14 14 14 14 14 14
34 31 28 25 23 19 14 11 10 9 10 13 14 14 13 12 12 10 9 8 7 6 6 6 7 7 8 8 9 9 8 6 3 1 2 3 4 5 6 6 6 5 5 5 5 4 4 5 8 11 12 14 15 14 12 12 13 13 12 12 11 11 10 11 12 14 16 17 18 19 19 19 18 17 17 17 16 15 15 15 14 14 14 14 14
35 33 30 27 23 19 15 13 11 11 12 14 15 15 14 12 11 11 10 10 9 6 5 6 6 7 7 8 9 10 10 10 8 6 4 3 3 4 4 5 5 5 5 4 4 3 4 3 4 7 8 9 12 12 12 12 11 12 13 14 13 13 13 13 11 11 13 14 14 15 17 18 18 18 18 18 18 18 17 17 16 15 15 15 15
37 34 32 28 24 20 16 14 13 13 13 14 15 16 15 12 10 10 10 10 10 7 5 5 5 6 7 7 8 9 10 11 10 9 8 5 3 2 2 2 3 3 3 3 2 2 3 3 4 5 5 6 6 7 8 8 7 8 9 11 12 14 16 15 12 11 12 13 13 12 13 15 16 16 17 16 17 17 17 18 18 18 17 17 17
38 36 33 30 26 22 18 16 15 15 14 14 15 16 15 13 11 10 9 9 9 7 5 4 4 5 5 6 7 8 9 10 10 10 9 8 7 5 3 2 1 1 2 2 2 2 2 3 4 5 6 6 7 7 7 7 6 6 6 7 8 9 11 13 14 15 15 16 17 15 13 14 14 14 14 13 13 14 15 16 17 18 18 18 18
39 37 35 31 28 24 21 19 18 17 15 15 16 15 15 14 13 12 10 9 9 8 6 5 4 4 4 5 5 6 7 8 9 9 9 9 9 8 7 5 4 3 2 2 3 3 2 3 4 5 6 7 7 8 8 8 8 8 7 7 7 7 8 8 9 11 12 13 16 17 17 17 17 17 16 15 16 16 17 17 18 18 18 18 19
41 39 36 32 29 26 24 22 20 18 17 17 16 15 15 16 15 13 11 10 10 9 8 6 5 4 3 3 4 4 4 6 7 8 8 8 8 7 7 5 4 3 3 3 3 3 3 3 4 5 6 7 7 8 8 9 9 10 10 10 9 9 9 8 7 7 8 10 12 14 16 18 19 20 20 20 20 20 21 21 22 22 20 19 19
42 39 36 34 31 28 26 24 22 21 20 19 18 17 16 17 16 15 13 11 11 9 8 7 6 5 4 3 3 3 3 4 6 6 7 6 6 5 4 4 3 2 2 2 3 3 4 4 5 6 7 8 9 9 9 10 10 11 11 12 12 11 10 9 9 8 8 9 11 13 14 15 18 20 21 21 22 22 22 23 23 24 24 22 20
Wind_Direction
164 160 160 157 160 167 167 165 164 164 162 160 157 154 151 145 139 131 125 123 123 123 122 116 114 116 117 122 128 134 140 142 143 143 142 143 144 142 140 141 142 141 144 144 146 146 144 144 140 135 132 128 121 123 125 119 117 116 114 117 117 117 124 128 132 135 132 129 127 124 120 116 113 111 109 108 104 100 96 92 88 84 82 77 73
162 157 156 154 160 167 169 168 168 167 163 160 156 155 152 148 141 132 129 127 128 125 122 116 111 113 117 121 127 134 140 144 145 146 143 142 140 136 135 135 137 140 146 150 156 158 158 157 152 149 144 140 130 128 132 128 125 123 121 124 122 122 127 130 135 139 134 133 131 127 123 118 114 111 109 107 104 99 95 92 89 85 82 77 72
160 154 152 151 156 168 170 170 170 167 164 160 156 156 153 151 142 133 129 127 130 128 123 116 111 113 119 124 128 133 137 141 142 142 140 138 133 128 126 123 124 128 137 146 156 161 164 166 167 165 159 152 139 137 139 136 133 130 130 130 126 125 129 133 138 140 135 135 134 130 125 120 116 113 111 108 104 100 96 92 88 83 80 76 70
161 152 150 149 152 164 170 172 172 169 166 161 158 158 156 154 143 135 129 125 127 127 125 118 115 114 118 124 127 131 134 138 140 139 135 130 125 121 117 114 114 114 117 126 143 153 160 167 171 171 168 164 151 145 145 145 142 136 138 137 130 127 131 134 140 142 139 137 134 131 127 123 120 117 115 111 108 104 100 94 89 83 79 75 67
160 152 150 148 149 158 166 172 175 173 169 163 159 158 158 157 146 139 131 123 125 128 128 122 119 118 119 123 128 134 136 138 138 136 132 127 123 119 115 114 111 107 109 112 123 138 152 163 170 171 172 171 158 150 149 150 146 141 144 144 135 129 131 135 140 144 144 140 135 132 129 127 125 122 120 117 113 109 104 97 90 84 79 73 67
159 154 151 149 150 156 163 169 175 175 172 168 162 160 161 161 153 144 136 128 127 128 129 125 122 121 122 125 129 136 141 143 140 135 132 129 127 123 118 115 109 107 110 111 113 121 137 152 167 170 170 172 161 153 151 151 149 144 148 147 138 131 131 134 136 141 145 141 136 133 131 131 129 127 125 122 118 114 109 100 92 84 78 71 65
161 156 152 151 151 153 160 165 172 175 174 173 167 164 164 165 161 151 144 138 134 131 129 127 123 122 124 127 130 134 140 146 146 141 139 138 134 131 126 119 110 110 114 113 115 116 123 140 163 166 163 166 158 152 151 152 151 146 150 150 139 131 130 133 134 136 140 140 137 135 134 134 132 132 129 127 125 120 114 105 96 86 77 69 60
163 158 154 152 152 153 159 164 169 175 176 176 172 169 168 170 169 159 152 148 142 136 133 131 126 124 124 126 132 135 141 148 153 152 151 149 144 139 134 127 119 120 121 121 123 122 122 134 160 160 156 161 155 152 152 152 153 147 149 152 140 132 132 134 135 135 135 138 139 136 136 136 136 135 132 130 128 125 119 109 99 86 78 69 57
165 160 156 155 156 155 160 165 168 173 178 179 176 174 171 172 174 169 162 158 151 143 138 135 130 127 126 126 132 137 144 151 157 157 154 159 156 148 141 133 128 124 123 130 132 129 128 135 157 155 150 158 152 151 153 152 152 146 144 149 142 134 134 135 136 135 133 136 141 139 137 139 140 138 134 132 130 127 120 111 100 89 80 70 58
168 164 161 161 160 159 161 166 170 173 178 181 180 177 175 172 175 176 171 168 161 154 147 142 137 131 130 131 134 138 145 152 160 159 157 163 160 156 153 145 134 123 122 134 134 131 135 139 155 151 149 155 149 149 153 151 149 144 140 141 141 136 134 136 137 138 136 138 142 143 141 141 142 140 138 137 134 130 123 115 105 97 86 72 58
170 169 167 166 162 164 163 167 172 174 177 183 184 180 179 174 175 180 179 176 170 165 157 152 148 139 135 137 139 140 145 153 159 163 166 164 154 156 159 152 140 124 125 136 134 132 137 141 152 150 153 159 152 153 154 152 150 145 139 136 136 136 135 135 137 140 141 141 143 145 145 145 146 145 141 140 138 135 129 120 111 104 95 80 58
172 173 172 169 165 167 166 167 172 175 177 185 188 182 181 178 179 183 182 182 179 174 167 162 160 152 146 145 147 147 152 159 161 166 173 173 165 162 159 158 151 131 129 136 136 137 138 141 151 154 165 168 159 156 155 154 152 146 139 136 136 138 137 136 138 142 143 144 144 145 148 150 151 151 146 143 143 139 133 125 120 115 108 95 66
174 176 175 171 167 171 169 166 168 172 173 181 189 184 183 180 183 187 183 184 186 182 176 171 170 166 162 159 159 159 165 171 171 174 175 172 173 169 165 168 160 139 134 138 142 143 144 148 156 162 172 175 164 157 157 156 153 148 141 137 138 140 142 139 139 142 145 145 146 147 150 153 156 155 149 146 144 142 137 133 134 130 124 115 79
176 176 177 173 171 174 167 163 165 166 168 175 185 186 185 179 182 188 186 190 192 190 186 181 179 177 174 174 177 173 177 183 184 185 177 166 167 167 167 176 171 154 143 144 150 150 151 156 163 168 172 180 175 165 161 159 154 150 146 140 138 141 145 145 141 141 145 147 148 151 153 156 161 157 152 150 148 146 142 144 149 148 144 137 93
176 176 178 176 175 172 162 164 165 162 164 170 178 182 185 181 179 185 190 196 197 196 194 191 186 184 181 183 192 187 187 194 191 187 180 173 170 170 173 178 176 164 153 151 156 158 162 164 168 174 175 185 192 182 170 163 156 151 149 143 140 141 144 149 146 142 143 147 151 154 156 159 165 162 157 156 154 151 149 156 163 162 162 157 120
176 177 179 178 177 169 161 165 168 166 164 168 174 178 185 183 179 185 192 196 196 197 197 197 192 188 187 192 201 199 205 203 193 185 178 177 174 178 185 182 178 168 160 158 159 162 170 173 174 178 180 186 202 202 186 175 163 154 152 147 142 142 144 148 151 147 142 144 150 157 162 163 169 170 165 162 161 159 158 166 174 175 174 169 145
176 179 178 178 176 168 163 166 169 169 169 170 172 176 183 184 185 189 191 194 196 196 197 199 196 192 193 200 207 205 212 205 189 185 181 183 182 189 198 194 190 178 167 163 163 166 172 182 184 183 186 190 201 214 204 191 179 165 157 150 144 143 145 147 150 153 148 143 146 155 166 170 176 180 174 169 167 167 168 173 179 181 178 173 154
177 176 174 174 172 167 165 167 167 165 169 170 170 173 177 180 185 190 193 197 197 193 194 198 198 195 198 204 209 209 216 207 195 191 185 187 190 195 202 202 198 186 180 177 175 177 177 185 193 191 191 195 200 214 218 209 199 184 166 151 145 143 144 147 147 153 153 146 144 147 159 171 183 191 187 180 177 176 175 176 181 182 178 173 157
175 172 170 172 172 169 168 170 171 165 166 167 170 175 178 179 181 191 195 195 192 187 190 197 197 195 203 208 209 217 222 210 204 198 187 190 196 194 197 201 199 192 192 193 192 192 188 187 196 198 194 197 200 209 221 220 215 204 180 155 146 145 143 146 147 151 155 149 144 139 137 148 174 199 205 200 191 186 182 180 184 185 178 173 159
176 175 174 175 175 175 175 175 178 176 175 175 176 178 184 184 183 192 194 192 189 184 187 193 193 194 203 205 212 228 225 212 204 197 191 194 199 192 194 199 198 196 199 203 206 203 198 192 194 202 199 198 198 203 216 223 223 218 200 169 151 151 147 146 148 150 154 151 145 139 128 120 122 163 211 206 188 184 188 196 202 198 186 180 165
177 179 175 177 179 180 180 176 179 181 185 187 186 183 186 188 185 188 189 194 192 186 186 189 190 195 204 210 222 229 219 210 201 196 193 192 194 192 196 203 199 199 204 208 215 209 203 196 192 199 203 202 197 197 207 217 224 225 218 196 166 160 158 151 149 149 152 153 147 144 138 124 110 112 151 181 178 172 177 204 226 222 206 198 181
176 178 175 176 179 182 182 181 184 186 191 195 196 191 189 191 189 188 190 194 195 194 190 189 193 200 210 219 222 218 213 205 199 196 195 194 193 194 199 207 203 200 209 218 230 216 205 200 193 195 203 207 203 196 200 209 219 226 227 219 194 174 169 164 156 149 150 153 151 150 148 138 127 117 132 170 180 176 175 197 225 236 233 226 220
174 176 174 173 175 179 182 187 192 194 197 200 202 201 195 193 192 194 197 195 197 199 197 197 198 204 212 217 215 213 211 201 198 197 197 203 197 200 203 206 208 205 212 221 231 217 204 201 196 197 202 207 209 201 198 203 212 224 229 227 218 193 180 182 174 156 148 151 154 153 151 148 143 131 133 163 181 186 186 195 211 235 251 250 254
169 170 170 171 173 175 180 187 192 197 200 201 202 205 203 199 196 197 202 199 199 201 203 203 199 205 210 207 206 208 209 200 197 197 199 203 200 204 205 203 207 207 212 212 205 205 201 201 200 201 202 205 212 209 202 201 205 219 229 227 223 206 192 191 189 176 156 151 155 153 150 150 149 142 140 156 176 192 197 200 208 227 251 264 270
166 167 168 171 171 172 178 184 189 195 201 203 200 203 206 206 204 204 206 205 206 205 208 208 201 208 211 203 200 199 203 201 198 204 205 205 205 204 201 202 206 207 214 213 212 222 207 204 204 203 203 205 210 213 208 203 203 213 226 225 221 210 201 201 198 196 180 161 159 155 151 151 148 144 140 146 163 189 202 206 211 224 241 261 271
169 170 171 174 177 177 180 186 194 199 204 208 203 201 205 211 212 211 213 211 213 213 213 211 205 211 213 208 201 196 202 206 207 215 214 211 212 208 202 206 209 210 217 220 240 255 230 205 204 202 204 206 208 211 210 207 204 209 219 220 219 215 208 210 208 206 201 187 176 165 161 160 154 148 142 142 151 175 201 212 216 223 235 251 268
174 174 175 176 180 181 181 185 193 200 206 210 210 204 203 212 217 215 216 216 218 219 218 215 207 208 215 215 206 201 205 212 217 223 222 216 215 212 208 209 210 211 216 226 252 269 245 204 195 196 199 206 206 208 210 208 206 208 216 217 217 219 215 214 213 212 214 211 206 206 209 200 189 181 182 174 167 171 192 217 221 226 235 243 257
175 172 170 170 174 182 182 181 184 192 199 209 220 218 210 210 214 215 215 217 222 222 225 227 216 207 215 219 215 212 211 218 224 227 227 220 216 213 209 207 207 211 213 225 246 267 250 202 186 189 194 203 204 205 209 208 208 207 213 218 216 218 219 215 212 213 220 229 237 244 250 248 236 232 248 255 244 222 218 236 232 235 242 246 251
176 170 167 169 176 194 205 204 199 200 207 217 228 231 226 216 210 213 214 219 226 226 227 231 226 216 216 220 221 220 217 223 228 231 233 226 220 215 210 205 203 212 213 216 228 217 223 194 179 181 188 198 200 202 207 208 209 208 210 217 220 218 220 219 217 220 227 238 248 259 265 268 267 265 274 281 289 286 283 291 286 270 265 264 262
178 176 177 179 181 207 240 249 235 231 241 239 237 230 231 226 216 214 215 220 227 230 229 228 226 222 220 221 223 223 221 227 233 237 239 236 229 217 210 205 202 213 213 208 212 180 156 173 172 174 183 191 195 199 204 207 210 210 208 214 221 222 223 223 223 228 235 246 257 267 270 270 271 271 278 288 297 300 302 303 304 306 301 297 293
184 185 186 191 199 248 267 266 256 257 263 255 248 230 226 228 227 225 222 224 229 233 230 225 226 225 224 223 226 228 227 232 239 241 242 242 238 224 213 208 204 209 211 205 202 184 149 151 166 170 176 182 186 193 199 203 207 211 210 212 220 225 228 229 230 234 243 255 265 271 271 270 269 268 271 278 290 296 301 303 302 305 306 308 309
188 193 198 209 235 280 278 274 270 271 268 257 246 225 220 226 231 234 230 231 237 239 230 224 228 229 228 228 231 236 234 237 243 247 246 244 243 237 221 212 209 208 210 207 198 192 174 160 167 171 175 179 182 188 194 201 205 211 214 214 219 226 231 233 235 242 249 257 265 269 267 266 266 266 268 271 279 287 294 300 303 306 309 312 311
191 199 216 230 249 276 281 277 277 271 261 250 235 218 217 223 231 239 242 243 247 248 241 237 235 231 232 234 237 241 239 239 245 250 249 247 247 246 233 216 215 209 207 210 204 201 197 187 180 180 183 184 186 190 195 200 205 210 215 215 219 225 232 236 240 246 251 256 262 264 263 260 258 260 266 269 273 279 287 296 302 307 312 317 316
201 203 216 228 240 264 277 275 272 262 249 235 224 218 217 220 228 241 251 256 258 258 253 250 246 239 236 235 239 245 246 243 246 249 248 247 245 247 240 225 220 213 208 211 209 209 209 205 200 198 196 194 194 197 199 200 204 209 213 216 220 226 233 238 241 243 247 254 259 260 258 257 256 258 263 267 269 272 279 289 296 304 311 317 320
210 209 211 218 234 256 264 261 256 246 232 219 216 219 221 227 238 246 252 255 258 261 258 253 249 246 240 236 239 247 251 250 251 253 249 246 242 240 240 232 225 218 214 213 211 211 213 211 209 208 207 207 207 208 208 207 208 209 211 216 220 225 232 235 239 242 246 251 252 253 255 258 259 260 264 267 267 268 272 281 289 298 307 316 324
211 211 209 209 212 225 241 245 240 229 215 212 216 222 228 235 242 243 244 248 250 253 257 256 251 249 248 245 247 249 251 254 257 257 252 249 243 236 239 237 228 221 220 220 217 214 216 216 212 208 208 214 218 218 216 214 216 217 217 221 220 222 230 237 243 251 255 255 252 250 252 255 257 259 263 266 266 267 270 275 282 294 303 316 331
211 212 212 206 197 198 218 224 219 212 209 214 220 227 238 243 239 233 233 237 239 242 248 252 245 241 247 249 251 252 251 252 255 255 253 247 239 234 240 240 229 223 224 226 223 220 222 222 217 214 214 219 226 227 226 224 226 229 227 226 225 226 231 239 250 261 266 271 272 264 257 258 260 261 262 264 265 265 268 272 276 284 292 308 335
213 214 217 212 200 191 193 203 202 199 205 212 220 232 244 244 235 231 229 226 229 237 241 245 244 237 238 241 247 253 252 253 253 254 255 252 247 237 234 235 228 226 227 228 227 225 227 224 219 222 224 227 233 237 238 238 238 239 236 231 230 232 236 242 250 257 264 273 281 280 274 270 270 269 267 266 263 262 264 267 271 277 284 295 316
215 213 216 215 208 198 188 197 199 197 201 207 218 230 234 232 221 205 193 199 216 231 241 248 252 251 248 245 247 251 253 258 257 254 252 249 253 244 230 230 228 228 231 231 229 228 228 224 221 224 227 230 240 244 241 245 249 249 245 237 232 234 239 244 249 253 261 269 275 277 278 278 278 279 276 270 263 259 260 263 267 273 279 286 295
216 213 214 213 209 203 194 195 202 201 200 203 212 214 204 183 160 148 141 153 171 169 194 244 268 266 260 254 251 250 250 256 259 259 253 243 248 251 239 235 232 230 233 234 234 235 233 226 221 224 228 232 244 250 238 243 255 258 254 243 233 232 237 243 249 252 256 264 270 271 270 272 275 280 285 281 271 260 257 259 263 267 271 278 282
215 213 214 213 211 207 199 198 205 205 199 199 201 190 177 161 145 134 127 122 113 101 89 77 346 300 285 278 270 263 258 257 258 258 256 249 249 253 247 244 247 243 239 238 239 241 239 230 222 223 229 232 240 252 247 247 259 267 269 257 241 236 238 240 247 253 256 260 266 267 266 268 269 274 282 286 283 273 262 257 259 263 265 270 274
215 213 213 214 213 208 201 205 211 205 192 191 185 159 147 144 138 130 124 115 105 99 88 80 48 349 313 300 291 283 276 270 267 260 253 250 251 258 256 251 255 252 245 242 243 245 245 238 229 228 231 231 239 256 262 261 265 268 272 270 258 252 251 247 246 251 256 260 264 266 267 268 270 274 277 278 281 282 276 267 262 262 264 268 273
217 215 213 213 214 208 199 205 213 201 185 181 172 153 145 142 138 131 123 113 101 97 93 88 79 68 51 24 357 321 299 283 277 270 260 253 250 255 260 258 257 255 252 253 256 256 253 242 236 236 234 236 246 260 265 265 266 265 264 266 264 262 262 257 252 252 256 260 263 267 268 269 271 274 276 276 277 280 282 280 274 267 266 268 272
217 216 214 213 214 207 199 205 211 201 184 174 167 161 154 149 146 138 126 124 114 97 92 89 83 79 72 60 49 37 19 322 283 272 265 259 247 239 241 248 252 257 260 264 267 266 266 258 249 245 243 244 250 261 269 267 261 260 262 264 266 266 265 263 259 257 258 260 262 267 271 273 274 274 275 278 280 281 281 282 281 276 270 270 272
218 218 216 216 214 206 201 207 211 202 187 175 172 172 168 161 157 150 143 144 136 112 98 92 84 79 74 70 63 57 55 53 56 53 241 234 233 230 230 229 223 231 239 245 254 253 265 272 260 254 253 251 252 260 272 274 263 255 253 258 264 266 263 263 264 263 261 260 263 266 269 272 276 276 276 279 281 282 281 280 282 282 278 275 275
221 220 218 217 213 206 204 209 212 204 190 181 179 181 180 174 163 149 145 148 144 132 118 102 88 81 75 73 70 67 66 67 71 80 105 159 198 217 227 232 224 221 223 227 237 236 241 248 249 254 256 251 252 257 261 266 267 257 251 252 255 259 263 267 268 268 264 260 260 263 264 265 270 274 276 280 281 281 282 280 279 280 281 280 279
222 220 218 217 213 207 206 211 216 209 197 188 187 190 190 182 166 145 136 144 146 138 135 121 99 89 82 77 76 74 75 76 79 83 91 106 127 167 202 224 235 236 238 245 248 248 242 236 237 245 251 251 251 249 246 250 259 257 252 250 251 254 258 260 262 266 270 264 255 255 261 263 263 267 271 277 283 284 284 282 281 278 277 276 276
223 221 218 216 213 209 208 213 218 213 205 197 194 198 198 186 173 163 151 149 150 145 149 144 119 105 93 87 84 80 81 84 87 88 88 89 88 88 89 86 55 310 302 308 304 298 283 261 255 255 257 258 256 255 254 253 254 254 253 250 252 255 257 260 262 262 266 269 266 262 259 257 255 257 262 268 278 285 288 288 287 284 278 274 273
223 223 220 217 214 211 210 213 216 216 212 205 200 202 204 194 183 183 176 163 164 169 172 165 145 128 109 99 96 92 91 93 95 96 95 91 88 86 83 79 69 53 30 10 353 332 315 290 275 268 266 265 263 262 261 261 259 259 259 256 254 256 260 268 270 263 262 270 274 273 267 259 252 248 251 262 273 279 283 286 287 289 287 281 275
224 223 220 218 216 212 211 213 216 219 218 212 206 203 207 203 194 196 194 183 183 185 183 180 170 157 140 124 115 117 113 107 107 105 103 101 96 92 91 89 84 70 47 21 4 344 327 306 290 278 273 271 269 269 267 266 266 265 266 268 267 264 261 262 263 263 264 266 269 273 273 271 265 255 252 262 270 272 274 277 279 283 287 287 282
223 223 221 219 217 214 214 216 218 222 221 217 212 207 209 209 202 202 204 201 200 194 186 186 180 167 166 165 154 154 147 134 128 120 116 112 102 96 92 93 91 78 46 9 348 336 330 319 307 293 282 275 270 269 269 269 272 273 273 273 274 275 270 264 260 260 263 267 270 273 275 275 274 268 263 265 269 269 270 270 272 276 279 282 281
Height
1509 1510 1512 1512 1514 1515 1516 1517 1519 1520 1521 1522 1522 1523 1524 1525 1525 1526 1526 1526 1527 1527 1527 1528 1528 1528 1529 1529 1530 1531 1531 1532 1532 1533 1533 1534 1535 1536 1537 1537 1538 1539 1539 1540 1541 1541 1542 1542 1543 1543 1543 1544 1544 1545 1545 1546 1546 1547 1547 1547 1547 1547 1548 1549 1549 1550 1551 1552 1553 1553 1554 1555 1556 1556 1556 1557 1557 1557 1557 1557 1557 1557 1556 1556 1555
1508 1510 1512 1513 1514 1515 1516 1517 1519 1520 1521 1522 1523 1524 1525 1525 1526 1527 1527 1527 1528 1528 1528 1529 1529 1530 1530 1531 1531 1532 1532 1533 1534 1534 1534 1535 1536 1537 1538 1538 1539 1539 1540 1540 1541 1541 1542 1542 1543 1543 1543 1544 1544 1545 1546 1546 1547 1547 1547 1548 1548 1548 1548 1549 1550 1551 1552 1552 1553 1554 1555 1556 1557 1557 1558 1558 1558 1558 1558 1558 1558 1558 1557 1557 1557
1509 1510 1512 1513 1514 1515 1516 1518 1519 1520 1522 1523 1524 1525 1525 1526 1527 1528 1528 1528 1529 1529 1529 1530 1530 1531 1531 1532 1532 1533 1534 1534 1535 1536 1536 1536 1537 1538 1538 1539 1540 1540 1540 1541 1541 1541 1542 1542 1543 1543 1543 1544 1544 1545 1546 1547 1547 1548 1548 1548 1548 1548 1549 1550 1551 1552 1553 1553 1554 1555 1556 1557 1558 1558 1559 1559 1559 1559 1560 1560 1560 1559 1559 1559 1558
1509 1510 1512 1513 1514 1516 1517 1518 1519 1520 1522 1523 1524 1525 1526 1527 1528 1528 1529 1529 1530 1530 1530 1531 1531 1531 1532 1532 1533 1534 1535 1535 1536 1537 1537 1538 1538 1539 1539 1540 1541 1541 1541 1541 1541 1541 1542 1542 1543 1543 1543 1544 1544 1545 1546 1547 1547 1548 1548 1549 1548 1549 1550 1551 1552 1553 1554 1554 1555 1556 1557 1558 1558 1559 1560 1560 1560 1560 1561 1561 1561 1561 1560 1560 1560
1509 1510 1512 1513 1514 1516 1517 1518 1519 1521 1522 1524 1525 1526 1527 1528 1528 1529 1529 1530 1531 1531 1532 1532 1532 1532 1533 1533 1534 1535 1536 1536 1537 1538 1538 1539 1539 1539 1540 1541 1541 1541 1541 1541 1541 1541 1542 1542 1542 1543 1543 1544 1544 1545 1546 1547 1548 1548 1549 1549 1548 1549 1550 1551 1552 1553 1555 1555 1556 1557 1558 1558 1559 1560 1561 1561 1561 1561 1562 1562 1562 1562 1562 1562 1561
1509 1511 1512 1513 1514 1515 1517 1518 1519 1521 1522 1524 1525 1526 1527 1528 1529 1529 1530 1531 1532 1532 1533 1533 1533 1533 1534 1534 1535 1536 1537 1537 1538 1539 1539 1540 1540 1540 1541 1541 1542 1542 1542 1542 1542 1542 1542 1542 1542 1542 1543 1544 1544 1545 1546 1547 1548 1548 1549 1549 1549 1549 1550 1552 1553 1554 1555 1556 1556 1557 1558 1559 1560 1561 1561 1562 1562 1562 1563 1563 1563 1563 1563 1563 1562
1510 1511 1512 1513 1514 1515 1517 1518 1520 1521 1522 1524 1525 1526 1527 1528 1529 1530 1531 1531 1532 1533 1533 1534 1534 1534 1535 1535 1535 1536 1537 1538 1539 1539 1540 1540 1541 1541 1541 1542 1542 1543 1543 1543 1543 1542 1542 1542 1542 1542 1543 1544 1544 1545 1546 1547 1548 1548 1549 1550 1549 1549 1550 1552 1553 1555 1556 1557 1557 1558 1559 1560 1561 1561 1562 1563 1563 1563 1563 1564 1564 1564 1564 1564 1563
1510 1511 1512 1514 1515 1516 1517 1518 1520 1521 1522 1524 1525 1526 1527 1529 1529 1530 1531 1532 1533 1533 1534 1534 1535 1535 1535 1536 1536 1537 1537 1538 1539 1540 1540 1541 1541 1541 1541 1542 1543 1543 1543 1543 1543 1543 1543 1543 1543 1543 1543 1544 1544 1545 1546 1547 1548 1548 1549 1550 1550 1549 1550 1552 1553 1555 1556 1558 1558 1558 1559 1560 1561 1562 1563 1563 1564 1564 1564 1564 1565 1565 1565 1565 1564
1510 1511 1513 1514 1515 1516 1517 1519 1520 1521 1522 1523 1525 1526 1527 1528 1530 1531 1532 1533 1533 1534 1534 1535 1535 1536 1536 1536 1537 1538 1538 1538 1539 1540 1541 1541 1542 1542 1542 1542 1543 1543 1544 1544 1544 1544 1544 1544 1544 1544 1544 1544 1545 1545 1546 1547 1548 1549 1550 1551 1550 1550 1551 1552 1554 1555 1557 1558 1559 1559 1559 1560 1561 1562 1563 1564 1564 1565 1565 1565 1565 1566 1565 1565 1565
1510 1512 1513 1514 1515 1516 1517 1519 1520 1521 1522 1523 1524 1525 1527 1528 1530 1531 1532 1533 1533 1534 1534 1535 1536 1536 1537 1537 1538 1538 1539 1539 1540 1540 1541 1541 1542 1542 1542 1543 1544 1544 1544 1544 1544 1545 1545 1545 1544 1545 1545 1545 1545 1546 1546 1547 1549 1549 1550 1551 1552 1551 1551 1552 1554 1555 1556 1558 1559 1560 1560 1561 1561 1562 1563 1564 1564 1565 1566 1566 1566 1566 1566 1566 1565
1510 1512 1513 1514 1515 1516 1518 1519 1520 1521 1522 1523 1523 1525 1527 1528 1530 1531 1532 1533 1533 1534 1535 1535 1536 1536 1537 1538 1538 1539 1539 1540 1540 1541 1541 1541 1541 1542 1542 1543 1544 1544 1545 1545 1545 1545 1545 1546 1546 1546 1546 1546 1546 1546 1547 1548 1549 1550 1551 1552 1553 1553 1552 1552 1554 1555 1556 1558 1559 1560 1561 1561 1562 1562 1563 1564 1564 1565 1566 1566 1566 1566 1566 1566 1566
1510 1512 1513 1514 1516 1517 1518 1519 1520 1521 1523 1523 1523 1525 1527 1529 1530 1530 1531 1532 1533 1534 1535 1535 1536 1537 1537 1538 1539 1539 1540 1540 1541 1541 1541 1542 1542 1542 1543 1543 1544 1545 1546 1546 1546 1546 1546 1547 1547 1547 1547 1547 1547 1547 1547 1548 1549 1551 1551 1552 1553 1554 1554 1553 1554 1555 1556 1558 1559 1560 1561 1561 1562 1563 1563 1564 1564 1565 1566 1566 1566 1566 1566 1566 1566
1510 1512 1513 1515 1516 1518 1519 1519 1521 1522 1523 1523 1524 1525 1527 1529 1530 1530 1530 1532 1533 1534 1535 1535 1536 1537 1538 1538 1539 1540 1540 1541 1541 1542 1542 1542 1543 1543 1543 1543 1544 1545 1546 1546 1546 1547 1547 1547 1548 1548 1548 1548 1548 1548 1548 1549 1550 1551 1552 1552 1553 1554 1555 1554 1554 1555 1556 1557 1559 1560 1561 1562 1562 1563 1564 1564 1565 1565 1566 1566 1566 1566 1566 1566 1566
1510 1512 1513 1515 1517 1518 1519 1520 1521 1522 1523 1523 1524 1525 1526 1528 1529 1530 1531 1532 1533 1534 1535 1535 1536 1537 1538 1539 1539 1540 1540 1541 1541 1542 1542 1542 1543 1543 1543 1544 1544 1545 1546 1547 1547 1547 1548 1548 1548 1549 1549 1549 1549 1549 1549 1549 1550 1552 1552 1553 1553 1554 1556 1556 1555 1556 1557 1557 1559 1560 1561 1562 1562 1563 1564 1564 1565 1565 1566 1566 1566 1566 1566 1566 1566
1511 1512 1514 1515 1517 1518 1519 1520 1522 1522 1523 1524 1524 1525 1526 1527 1529 1530 1531 1532 1533 1534 1535 1535 1536 1537 1538 1539 1540 1540 1541 1541 1541 1542 1542 1543 1543 1543 1544 1544 1544 1545 1546 1547 1547 1548 1548 1548 1549 1549 1550 1550 1550 1550 1550 1550 1551 1552 1553 1554 1554 1555 1556 1557 1557 1557 1557 1558 1559 1560 1561 1561 1562 1563 1563 1564 1565 1565 1565 1566 1566 1566 1566 1567 1566
1512 1513 1514 1515 1517 1518 1519 1521 1522 1523 1523 1524 1524 1525 1526 1527 1529 1530 1531 1532 1532 1533 1535 1535 1536 1537 1538 1539 1540 1540 1541 1541 1541 1542 1542 1543 1543 1543 1544 1544 1545 1546 1546 1547 1548 1548 1549 1549 1549 1550 1550 1551 1551 1551 1551 1551 1551 1552 1553 1554 1555 1555 1556 1557 1558 1558 1558 1558 1559 1560 1561 1561 1562 1563 1563 1563 1564 1565 1565 1566 1566 1566 1566 1567 1567
1512 1513 1515 1517 1518 1519 1520 1521 1522 1523 1523 1524 1525 1526 1526 1527 1528 1529 1530 1531 1532 1533 1534 1535 1536 1537 1538 1539 1540 1540 1541 1541 1541 1542 1542 1543 1543 1544 1544 1544 1545 1546 1547 1548 1548 1549 1549 1550 1550 1550 1551 1551 1551 1552 1552 1552 1552 1553 1554 1555 1555 1556 1556 1557 1558 1559 1559 1559 1560 1560 1561 1562 1562 1563 1563 1563 1564 1564 1564 1565 1566 1566 1567 1567 1567
1513 1514 1516 1518 1519 1520 1521 1522 1522 1523 1524 1524 1525 1526 1527 1527 1528 1529 1530 1531 1531 1532 1534 1535 1536 1537 1538 1539 1540 1540 1541 1541 1541 1542 1543 1543 1543 1544 1544 1545 1545 1546 1547 1548 1549 1549 1549 1550 1550 1550 1551 1551 1552 1552 1552 1552 1553 1553 1554 1556 1556 1557 1557 1557 1558 1559 1560 1560 1560 1561 1561 1562 1563 1563 1564 1564 1564 1564 1565 1565 1566 1567 1567 1567 1567
1513 1515 1517 1518 1519 1520 1521 1522 1522 1523 1524 1525 1526 1526 1527 1528 1528 1529 1530 1531 1531 1532 1534 1535 1536 1537 1538 1539 1539 1540 1541 1541 1541 1542 1542 1543 1543 1544 1544 1545 1545 1546 1547 1548 1549 1549 1549 1550 1550 1551 1551 1551 1552 1553 1553 1553 1554 1554 1555 1556 1557 1558 1558 1558 1558 1559 1560 1560 1561 1561 1562 1562 1563 1564 1564 1565 1566 1566 1567 1567 1567 1567 1567 1568 1568
1514 1515 1517 1518 1519 1520 1521 1522 1523 1524 1524 1525 1526 1526 1527 1528 1529 1529 1530 1531 1532 1532 1534 1535 1536 1537 1538 1538 1539 1540 1540 1541 1541 1542 1542 1543 1543 1544 1544 1544 1545 1545 1546 1547 1548 1549 1549 1549 1550 1551 1551 1551 1551 1552 1553 1554 1554 1554 1555 1557 1558 1558 1559 1559 1559 1559 1560 1561 1561 1562 1562 1563 1563 1564 1565 1565 1566 1567 1568 1568 1569 1569 1568 1568 1568
1514 1515 1516 1518 1519 1520 1521 1522 1523 1524 1525 1525 1526 1526 1527 1528 1529 1530 1530 1531 1532 1533 1534 1535 1536 1537 1538 1538 1539 1540 1540 1540 1541 1541 1542 1542 1542 1543 1544 1544 1544 1545 1546 1546 1547 1548 1549 1549 1549 1550 1551 1551 1551 1552 1553 1554 1554 1555 1556 1557 1558 1559 1560 1560 1559 1559 1560 1561 1562 1562 1563 1563 1563 1564 1565 1565 1566 1567 1568 1569 1569 1569 1569 1569 1569
1513 1515 1516 1518 1519 1521 1522 1523 1523 1524 1525 1525 1526 1527 1527 1528 1529 1530 1530 1531 1532 1533 1533 1534 1536 1537 1537 1537 1539 1539 1539 1540 1540 1540 1541 1542 1542 1543 1543 1544 1544 1545 1545 1546 1546 1547 1548 1549 1549 1550 1551 1551 1551 1551 1552 1554 1555 1555 1556 1557 1558 1559 1560 1560 1560 1560 1560 1561 1562 1562 1563 1563 1564 1564 1564 1565 1566 1567 1568 1569 1569 1570 1570 1570 1570
1513 1515 1516 1518 1519 1521 1522 1523 1524 1524 1525 1525 1526 1527 1527 1528 1529 1529 1530 1531 1532 1532 1533 1534 1535 1537 1537 1537 1538 1538 1539 1539 1540 1540 1541 1542 1542 1543 1543 1544 1544 1544 1545 1545 1546 1546 1547 1548 1549 1549 1550 1551 1551 1551 1552 1553 1555 1555 1556 1557 1558 1559 1560 1561 1561 1560 1560 1561 1562 1562 1563 1563 1564 1564 1564 1565 1566 1567 1567 1568 1569 1569 1570 1570 1570
1513 1515 1517 1518 1520 1521 1522 1523 1524 1524 1525 1526 1526 1527 1527 1528 1528 1529 1530 1531 1531 1532 1533 1534 1535 1536 1537 1537 1538 1538 1539 1539 1540 1540 1541 1541 1542 1542 1543 1543 1544 1544 1544 1545 1545 1546 1546 1547 1548 1548 1549 1550 1551 1551 1552 1553 1554 1555 1556 1557 1558 1559 1560 1561 1561 1561 1561 1561 1562 1563 1563 1563 1564 1564 1564 1565 1565 1566 1567 1568 1568 1569 1570 1570 1570
1515 1516 1517 1519 1520 1521 1522 1523 1524 1524 1525 1526 1526 1526 1527 1527 1528 1529 1530 1530 1531 1532 1533 1534 1535 1536 1537 1537 1537 1538 1539 1539 1539 1540 1541 1541 1542 1542 1543 1543 1544 1544 1545 1545 1545 1545 1545 1546 1547 1548 1549 1550 1550 1551 1552 1553 1554 1555 1556 1557 1558 1559 1560 1560 1561 1561 1562 1562 1562 1563 1563 1564 1564 1564 1564 1565 1565 1566 1567 1567 1568 1569 1569 1570 1570
1515 1516 1518 1519 1520 1522 1523 1523 1524 1524 1525 1526 1526 1526 1527 1527 1528 1528 1529 1530 1531 1531 1532 1533 1534 1535 1536 1537 1537 1537 1538 1539 1539 1539 1540 1541 1542 1542 1543 1543 1544 1544 1545 1544 1544 1544 1544 1545 1546 1547 1548 1549 1549 1550 1551 1552 1554 1555 1555 1557 1558 1559 1560 1560 1561 1561 1562 1562 1563 1563 1563 1564 1564 1564 1564 1565 1565 1566 1566 1567 1568 1568 1569 1569 1570
1516 1517 1518 1519 1520 1521 1523 1523 1524 1525 1525 1526 1526 1526 1527 1527 1528 1528 1529 1530 1530 1531 1532 1533 1534 1535 1535 1536 1537 1537 1538 1538 1539 1539 1540 1540 1541 1542 1542 1543 1544 1544 1544 1544 1544 1543 1543 1544 1545 1546 1548 1548 1549 1550 1550 1551 1553 1554 1555 1556 1557 1558 1559 1560 1560 1561 1562 1562 1563 1563 1564 1564 1564 1564 1564 1564 1565 1565 1566 1566 1567 1568 1568 1569 1569
1516 1517 1518 1519 1520 1521 1522 1523 1524 1525 1525 1526 1526 1526 1527 1527 1527 1528 1528 1529 1530 1531 1531 1532 1533 1534 1535 1535 1536 1536 1537 1538 1538 1538 1539 1539 1539 1540 1541 1541 1543 1543 1543 1543 1543 1543 1542 1543 1543 1545 1546 1548 1548 1549 1550 1551 1552 1553 1555 1556 1557 1558 1559 1559 1560 1561 1561 1562 1563 1563 1564 1564 1564 1564 1564 1564 1564 1565 1565 1566 1567 1567 1568 1568 1568
1516 1517 1518 1519 1520 1521 1522 1523 1523 1524 1525 1526 1526 1526 1526 1526 1527 1527 1528 1529 1529 1530 1531 1532 1533 1534 1535 1535 1535 1536 1537 1537 1537 1538 1538 1538 1538 1539 1540 1541 1542 1543 1543 1543 1542 1543 1542 1542 1543 1544 1546 1547 1548 1549 1550 1551 1551 1553 1554 1555 1556 1557 1558 1559 1560 1560 1561 1562 1562 1563 1564 1564 1565 1565 1565 1565 1565 1565 1565 1566 1566 1567 1567 1567 1568
1516 1517 1518 1519 1520 1521 1521 1522 1522 1523 1524 1525 1525 1525 1526 1526 1526 1527 1528 1528 1529 1530 1530 1531 1532 1533 1534 1535 1535 1535 1536 1536 1536 1537 1537 1537 1538 1538 1540 1541 1541 1542 1543 1543 1543 1543 1543 1542 1543 1544 1545 1546 1548 1549 1550 1551 1551 1552 1553 1554 1555 1556 1557 1558 1559 1560 1560 1561 1562 1563 1563 1564 1564 1565 1565 1565 1565 1565 1565 1566 1566 1567 1567 1567 1567
1515 1516 1517 1518 1519 1520 1520 1521 1521 1522 1523 1523 1524 1525 1525 1526 1526 1527 1527 1528 1528 1529 1530 1530 1531 1532 1533 1534 1535 1535 1536 1536 1536 1537 1537 1537 1537 1537 1539 1540 1541 1542 1543 1543 1543 1543 1543 1543 1544 1544 1545 1547 1548 1549 1549 1550 1551 1552 1553 1554 1555 1555 1556 1557 1558 1559 1560 1560 1561 1562 1563 1563 1564 1564 1565 1565 1565 1565 1565 1566 1566 1566 1566 1567 1567
1514 1515 1517 1518 1519 1519 1520 1520 1521 1521 1522 1523 1523 1524 1525 1525 1526 1526 1526 1527 1527 1528 1528 1529 1530 1531 1532 1533 1533 1534 1535 1536 1536 1536 1536 1536 1536 1536 1538 1540 1541 1542 1543 1543 1544 1544 1544 1545 1545 1545 1546 1547 1548 1548 1549 1550 1551 1551 1552 1553 1554 1555 1555 1556 1557 1558 1559 1559 1560 1561 1562 1563 1563 1563 1564 1564 1565 1565 1565 1565 1565 1566 1566 1566 1566
1513 1515 1516 1517 1518 1518 1519 1519 1520 1520 1521 1522 1523 1523 1524 1525 1525 1525 1525 1526 1526 1527 1527 1528 1529 1530 1531 1531 1532 1533 1534 1536 1536 1535 1535 1536 1536 1536 1537 1539 1540 1541 1542 1544 1544 1545 1545 1546 1546 1546 1546 1547 1548 1548 1549 1550 1551 1551 1552 1553 1554 1555 1555 1556 1556 1557 1558 1559 1559 1560 1561 1562 1562 1563 1563 1563 1564 1564 1564 1565 1565 1565 1565 1565 1565
1513 1514 1515 1516 1517 1518 1518 1519 1519 1520 1520 1521 1522 1523 1523 1524 1524 1525 1525 1525 1525 1526 1526 1527 1528 1529 1530 1530 1531 1532 1533 1534 1534 1534 1534 1535 1535 1536 1537 1538 1538 1540 1542 1543 1544 1545 1545 1546 1546 1547 1547 1547 1548 1548 1549 1550 1550 1551 1552 1553 1554 1555 1555 1555 1556 1557 1557 1558 1558 1559 1560 1561 1561 1562 1562 1563 1563 1564 1564 1564 1565 1565 1565 1565 1565
1512 1513 1515 1516 1517 1517 1518 1518 1519 1519 1520 1521 1522 1522 1523 1523 1524 1524 1524 1524 1525 1525 1526 1527 1527 1528 1528 1529 1530 1530 1531 1532 1532 1533 1533 1534 1534 1536 1536 1537 1538 1539 1540 1541 1542 1543 1544 1544 1545 1546 1546 1547 1548 1548 1549 1549 1550 1551 1552 1553 1554 1554 1555 1555 1555 1556 1556 1557 1557 1558 1559 1560 1560 1561 1561 1562 1562 1563 1563 1563 1564 1564 1564 1564 1564
1512 1513 1514 1515 1516 1517 1517 1518 1519 1519 1520 1521 1521 1522 1523 1523 1523 1523 1524 1524 1524 1525 1526 1526 1527 1528 1528 1528 1529 1529 1530 1530 1531 1531 1532 1533 1533 1535 1536 1535 1536 1538 1538 1539 1540 1541 1542 1543 1543 1544 1545 1546 1547 1547 1548 1549 1550 1550 1551 1552 1553 1554 1554 1555 1555 1555 1555 1556 1556 1557 1558 1559 1559 1560 1561 1561 1562 1562 1562 1563 1563 1563 1564 1564 1564
1511 1513 1514 1515 1515 1516 1517 1518 1518 1519 1520 1520 1521 1522 1522 1523 1523 1523 1523 1524 1524 1525 1526 1527 1527 1528 1528 1528 1528 1529 1529 1529 1530 1530 1531 1532 1533 1534 1534 1533 1534 1536 1537 1538 1538 1539 1541 1542 1542 1543 1544 1545 1546 1546 1547 1548 1548 1549 1550 1551 1552 1553 1553 1554 1554 1554 1555 1555 1555 1556 1557 1557 1558 1559 1560 1560 1561 1561 1562 1562 1562 1562 1563 1564 1564
1511 1512 1513 1515 1515 1516 1516 1517 1518 1519 1519 1520 1521 1522 1522 1522 1523 1523 1523 1524 1524 1525 1526 1526 1527 1528 1528 1528 1528 1528 1528 1528 1528 1529 1530 1531 1532 1533 1532 1532 1533 1534 1535 1536 1537 1538 1539 1540 1541 1542 1543 1544 1544 1545 1546 1546 1547 1548 1549 1549 1550 1551 1552 1553 1553 1554 1554 1554 1555 1555 1556 1556 1557 1558 1558 1559 1560 1560 1561 1561 1561 1562 1562 1563 1564
1510 1512 1513 1515 1515 1515 1516 1517 1517 1518 1519 1520 1520 1521 1522 1523 1523 1523 1523 1524 1524 1525 1525 1526 1527 1527 1528 1528 1528 1528 1528 1528 1528 1528 1529 1530 1531 1531 1531 1532 1533 1533 1533 1534 1535 1536 1538 1539 1540 1540 1541 1542 1543 1543 1545 1545 1546 1547 1548 1548 1548 1549 1550 1551 1552 1552 1553 1553 1554 1554 1555 1555 1556 1557 1557 1558 1558 1559 1560 1560 1560 1561 1561 1562 1563
1510 1512 1513 1514 1514 1515 1515 1516 1517 1517 1518 1519 1520 1521 1522 1523 1523 1523 1524 1524 1524 1525 1525 1526 1526 1526 1527 1527 1527 1527 1527 1527 1527 1528 1529 1530 1531 1531 1531 1532 1532 1532 1531 1532 1533 1535 1536 1537 1537 1538 1539 1540 1541 1542 1543 1544 1545 1546 1546 1547 1547 1547 1548 1549 1550 1551 1551 1552 1553 1553 1554 1554 1555 1555 1556 1557 1557 1557 1558 1559 1559 1560 1560 1561 1562
1509 1511 1512 1513 1514 1514 1515 1515 1516 1517 1518 1519 1520 1521 1522 1523 1523 1524 1524 1524 1525 1525 1526 1526 1526 1526 1526 1526 1526 1526 1526 1526 1527 1527 1528 1529 1530 1530 1531 1531 1531 1531 1531 1531 1533 1533 1534 1535 1536 1537 1538 1539 1540 1541 1542 1543 1543 1544 1545 1546 1546 1546 1547 1547 1548 1549 1550 1550 1551 1552 1552 1553 1553 1554 1555 1555 1555 1556 1556 1557 1558 1558 1559 1560 1560
1508 1509 1511 1512 1513 1514 1514 1515 1515 1516 1517 1518 1520 1521 1522 1523 1523 1524 1524 1525 1525 1526 1526 1526 1526 1526 1526 1526 1525 1525 1525 1525 1525 1526 1527 1528 1529 1529 1530 1531 1531 1531 1531 1531 1532 1532 1533 1534 1535 1537 1538 1539 1540 1540 1541 1542 1543 1543 1544 1544 1545 1546 1546 1546 1546 1547 1548 1548 1549 1550 1551 1551 1552 1552 1553 1554 1554 1554 1555 1555 1556 1557 1557 1558 1559
1507 1508 1510 1511 1512 1513 1514 1514 1515 1516 1517 1518 1520 1521 1522 1523 1524 1524 1525 1525 1526 1526 1526 1526 1526 1526 1526 1526 1525 1525 1525 1524 1525 1525 1526 1528 1528 1529 1529 1530 1530 1530 1531 1531 1532 1532 1533 1534 1535 1536 1537 1538 1539 1540 1540 1542 1542 1543 1543 1543 1543 1544 1545 1545 1545 1545 1546 1547 1548 1548 1549 1550 1550 1551 1551 1552 1552 1553 1553 1554 1554 1555 1556 1557 1557
1505 1506 1508 1509 1510 1512 1513 1514 1515 1516 1517 1518 1520 1521 1522 1523 1523 1524 1525 1525 1526 1526 1527 1527 1527 1527 1526 1526 1525 1525 1525 1524 1524 1525 1526 1527 1528 1528 1529 1530 1530 1530 1531 1531 1532 1533 1533 1534 1535 1536 1537 1537 1538 1539 1540 1541 1541 1542 1542 1542 1542 1542 1542 1543 1543 1544 1545 1546 1546 1547 1547 1548 1548 1549 1550 1550 1551 1551 1552 1552 1553 1553 1554 1555 1555
1502 1504 1506 1507 1509 1512 1513 1514 1515 1516 1517 1519 1520 1521 1522 1522 1523 1524 1524 1525 1526 1526 1527 1527 1527 1527 1526 1526 1526 1525 1525 1525 1525 1525 1525 1526 1527 1528 1529 1529 1530 1530 1531 1532 1533 1534 1534 1534 1535 1535 1536 1536 1537 1538 1538 1539 1540 1541 1541 1540 1541 1541 1541 1542 1542 1543 1544 1544 1545 1545 1546 1546 1546 1547 1548 1548 1549 1549 1550 1551 1551 1552 1552 1553 1554
1500 1502 1504 1507 1509 1511 1513 1514 1515 1516 1517 1519 1520 1521 1522 1522 1523 1523 1524 1524 1525 1526 1526 1527 1527 1527 1527 1526 1526 1526 1526 1525 1525 1525 1526 1526 1527 1527 1528 1529 1530 1531 1531 1532 1533 1533 1534 1534 1535 1535 1535 1535 1536 1536 1537 1538 1539 1539 1539 1539 1539 1539 1540 1541 1541 1541 1542 1543 1543 1544 1544 1544 1545 1545 1545 1546 1547 1547 1548 1548 1549 1550 1550 1551 1552
1497 1500 1503 1506 1508 1510 1512 1514 1514 1515 1517 1518 1519 1521 1522 1522 1523 1523 1524 1524 1525 1526 1526 1527 1527 1527 1527 1527 1527 1526 1526 1526 1526 1526 1526 1527 1527 1527 1528 1529 1529 1530 1531 1532 1532 1533 1534 1534 1534 1534 1534 1535 1535 1536 1536 1537 1537 1537 1537 1537 1538 1538 1539 1540 1541 1541 1541 1541 1542 1542 1543 1543 1543 1543 1543 1544 1544 1545 1545 1546 1546 1547 1548 1549 1549
1496 1499 1501 1504 1507 1509 1511 1513 1514 1515 1516 1517 1519 1520 1522 1522 1523 1523 1524 1525 1525 1526 1526 1527 1527 1527 1527 1527 1527 1527 1527 1527 1527 1527 1527 1527 1528 1528 1528 1529 1529 1530 1530 1531 1531 1532 1533 1533 1533 1533 1533 1534 1534 1535 1535 1536 1536 1536 1536 1536 1537 1537 1538 1539 1540 1540 1540 1540 1540 1541 1541 1541 1541 1541 1541 1542 1542 1542 1542 1543 1543 1544 1545 1546 1547
1494 1497 1500 1503 1506 1508 1510 1511 1513 1514 1515 1517 1518 1520 1521 1522 1523 1523 1524 1525 1525 1526 1526 1527 1527 1527 1527 1527 1527 1528 1528 1528 1528 1528 1528 1528 1529 1529 1529 1529 1530 1530 1530 1530 1531 1531 1532 1532 1532 1532 1532 1533 1533 1534 1534 1534 1535 1535 1535 1536 1536 1536 1537 1538 1538 1538 1539 1538 1538 1538 1539 1539 1539 1539 1540 1540 1540 1540 1540 1540 1541 1541 1542 1543 1544
1492 1495 1499 1502 1505 1507 1509 1510 1511 1513 1514 1516 1517 1519 1521 1522 1522 1523 1524 1525 1525 1526 1526 1527 1527 1527 1528 1528 1528 1528 1528 1528 1529 1529 1529 1529 1529 1530 1530 1530 1530 1530 1530 1530 1531 1531 1531 1531 1531 1532 1532 1532 1532 1533 1533 1534 1534 1534 1534 1534 1535 1535 1536 1536 1537 1537 1537 1537 1537 1536 1536 1537 1537 1537 1538 1538 1538 1538 1538 1539 1539 1539 1540 1540 1541
1490 1494 1497 1500 1503 1505 1507 1509 1510 1512 1513 1515 1516 1518 1519 1521 1522 1523 1524 1525 1525 1526 1526 1526 1527 1527 1528 1528 1528 1529 1529 1529 1529 1529 1529 1530 1530 1530 1530 1531 1531 1531 1531 1531 1531 1531 1531 1531 1531 1531 1531 1531 1532 1532 1533 1533 1533 1533 1533 1533 1533 1534 1534 1535 1535 1536 1536 1536 1535 1535 1535 1535 1534 1534 1535 1536 1536 1537 1536 1537 1537 1537 1538 1538 1539